Location: Helsinki
(60.1699°N, 24.9384°E)
Time: 22:38:41
(UTC+02:00)

Altair - Pass Details

Date: 28 October 2020
Orbit: 1502 x 1682 km, 47.2° (Epoch: 25 November)

Event Time Altitude Azimuth Distance (km) Brightness Sun altitude
Rises 07:58:14 0° 246° (WSW) 4,688 9.7 1.8°
Reaches altitude 10° 08:01:30 10° 239° (WSW) 3,727 9.3 2.2°
Maximum altitude 08:09:54 38° 176° (S) 2,254 8.9 3.1°
Drops below altitude 10° 08:18:35 10° 113° (ESE) 3,857 11.7 3.9°
Sets 08:22:01 0° 106° (ESE) 4,867 11.7 4.3°
